Temp
85 85 85 85 80 78 76 76 73 74 74 76 77 76 77 76 75 74 72 73 74 74 73 73 75 74 71 71 69 70 70 68
86 84 84 84 78 77 76 75 73 74 74 74 74 74 74 74 75 73 72 72 72 72 72 72 72 69 67 68 68 67 69 68
84 82 82 81 77 77 76 76 74 75 77 77 77 75 75 75 74 72 72 71 71 72 72 71 69 70 66 65 64 64 66 67
82 81 80 81 77 76 76 76 74 76 77 78 76 76 74 73 71 71 71 71 71 71 70 68 67 68 66 64 63 62 60 65
84 81 80 79 78 78 78 77 75 76 77 76 73 72 70 73 72 72 70 71 70 70 68 67 66 67 63 63 63 61 60 58
84 82 81 81 79 78 77 76 75 76 75 75 73 72 75 75 73 69 69 69 69 68 67 66 65 65 61 58 58 58 59 56
85 84 83 81 79 77 76 75 75 75 74 74 72 72 73 72 71 68 69 68 67 66 66 65 62 60 57 58 58 56 55 55
85 83 82 80 78 74 73 74 74 74 72 72 73 73 73 71 70 70 69 68 66 64 64 62 59 56 56 58 56 55 54 53
85 85 83 82 78 74 73 73 74 73 71 71 73 74 72 73 72 72 71 69 68 64 62 59 55 56 57 57 56 55 53 52
83 85 83 82 78 74 73 73 73 71 70 72 72 71 72 70 72 72 71 69 65 62 59 55 55 56 55 56 54 52 52 52
81 83 82 82 80 76 73 73 71 70 70 71 71 71 70 72 71 69 67 65 63 58 55 55 54 54 55 54 54 52 51 51
76 80 81 81 80 76 73 72 73 72 71 71 69 68 70 68 67 65 64 62 58 56 56 54 54 54 54 52 51 50 49 49
75 75 77 77 76 76 73 73 73 73 71 70 68 68 66 63 63 63 62 58 57 56 54 54 54 53 52 50 49 48 47 47
72 73 74 74 75 75 74 73 74 72 71 68 66 64 62 62 62 60 58 56 55 55 55 54 52 51 50 50 49 48 47 47
71 71 72 72 72 72 72 72 71 69 68 66 63 63 62 61 60 57 55 53 55 54 54 52 51 50 50 50 49 48 47 47
70 69 68 69 68 68 69 69 67 67 66 65 62 62 61 59 56 55 54 55 55 54 52 51 50 50 47 44 47 47 46 46
70 69 67 67 66 67 66 66 66 67 65 63 62 60 58 56 54 52 52 54 53 52 51 50 49 49 35 35 37 45 46 46
70 68 67 67 66 67 65 65 66 65 64 62 59 58 55 53 53 52 53 52 52 50 49 49 48 43 35 35 35 44 46 45
71 69 68 67 67 66 66 66 65 63 61 59 58 56 54 54 53 53 52 52 51 50 49 48 47 41 35 34 35 42 46 46
MSLP
1014.26 1015.42 1016.12 1017.34 1019.21 1020.32 1021.30 1022.11 1022.96 1023.29 1023.82 1023.97 1024.18 1024.42 1024.65 1025.26 1025.65 1026.17 1026.73 1026.87 1026.86 1026.64 1026.90 1026.89 1026.49 1026.57 1026.95 1027.03 1026.94 1026.71 1026.28 1026.41
1013.81 1015.09 1015.96 1017.03 1018.94 1019.93 1020.95 1021.72 1022.62 1023.13 1023.44 1023.55 1023.86 1024.07 1024.78 1025.17 1025.58 1026.44 1026.66 1026.86 1027.05 1027.05 1026.96 1027.02 1027.06 1027.44 1027.75 1027.64 1027.38 1026.87 1026.31 1026.60
1013.24 1014.69 1015.84 1016.92 1018.47 1019.52 1020.49 1021.20 1022.19 1022.65 1022.76 1022.97 1023.31 1023.91 1024.55 1024.93 1025.65 1026.34 1026.61 1026.98 1027.18 1027.13 1027.09 1027.24 1027.55 1027.43 1028.07 1028.15 1028.06 1027.67 1027.14 1026.92
1012.49 1014.08 1015.23 1016.57 1017.86 1018.90 1019.88 1020.65 1021.59 1022.03 1022.17 1022.57 1023.31 1023.91 1024.45 1025.03 1025.77 1026.24 1026.69 1027.03 1027.15 1027.35 1027.58 1027.83 1027.96 1027.84 1028.11 1028.46 1028.58 1028.27 1028.00 1027.45
1011.78 1013.33 1014.54 1015.83 1017.11 1018.32 1019.33 1020.20 1021.10 1021.65 1021.99 1022.41 1023.02 1023.48 1023.96 1024.43 1025.21 1025.70 1026.58 1026.94 1027.25 1027.58 1027.93 1028.15 1028.32 1028.31 1028.78 1028.73 1028.98 1029.03 1028.90 1028.52
1010.92 1012.46 1013.78 1015.09 1016.41 1017.73 1018.83 1019.70 1020.60 1021.23 1021.84 1022.28 1022.99 1023.15 1023.39 1024.10 1024.93 1025.87 1026.38 1027.00 1027.38 1027.76 1028.13 1028.36 1028.56 1028.70 1029.57 1029.90 1029.86 1029.86 1029.59 1029.62
1010.19 1011.96 1013.34 1014.61 1015.90 1017.16 1018.33 1019.24 1020.14 1020.91 1021.73 1022.19 1022.71 1022.87 1023.07 1023.88 1024.70 1025.66 1026.14 1026.80 1027.46 1027.95 1028.28 1028.63 1029.21 1029.84 1030.31 1030.20 1030.25 1030.51 1030.64 1030.38
1009.50 1010.90 1012.45 1013.84 1015.28 1016.80 1018.01 1018.91 1019.69 1020.54 1021.49 1022.02 1022.43 1022.74 1023.14 1023.71 1024.49 1025.06 1025.63 1026.35 1027.14 1028.10 1028.49 1029.17 1029.87 1030.55 1030.69 1030.45 1030.69 1030.73 1030.98 1030.95
1009.06 1010.09 1011.78 1013.29 1014.89 1016.62 1017.70 1018.52 1019.18 1020.11 1021.14 1021.84 1022.23 1022.55 1023.09 1023.55 1024.19 1024.47 1025.24 1025.87 1026.76 1028.03 1028.97 1029.86 1030.64 1030.78 1030.63 1030.74 1030.75 1031.01 1031.21 1031.30
1009.34 1009.91 1011.37 1012.72 1014.40 1016.05 1017.00 1017.80 1018.90 1020.09 1020.88 1021.39 1021.97 1022.56 1022.89 1023.41 1023.76 1024.24 1025.06 1025.82 1027.36 1028.54 1029.54 1030.39 1030.72 1030.76 1031.01 1030.93 1031.18 1031.51 1031.51 1031.46
1010.14 1010.26 1011.45 1012.59 1013.90 1015.56 1016.99 1017.89 1018.65 1019.94 1020.72 1021.30 1021.97 1022.52 1023.14 1023.34 1023.96 1024.79 1025.68 1026.90 1027.85 1029.25 1030.12 1030.43 1030.84 1031.13 1031.14 1031.20 1031.24 1031.71 1031.79 1031.69
1011.34 1011.18 1011.87 1012.62 1013.79 1015.14 1016.60 1017.70 1018.46 1019.44 1020.59 1021.28 1021.96 1022.65 1023.17 1023.84 1024.64 1025.62 1026.55 1027.44 1028.75 1029.68 1029.97 1030.69 1030.91 1031.07 1031.32 1031.51 1031.66 1031.92 1032.00 1032.00
1012.04 1012.56 1012.93 1013.56 1014.20 1015.21 1016.35 1017.27 1018.02 1018.84 1020.21 1021.06 1022.10 1022.67 1023.58 1024.50 1025.37 1026.18 1027.06 1028.19 1029.01 1029.54 1030.28 1030.47 1030.83 1031.31 1031.70 1031.92 1031.98 1032.19 1032.20 1032.20
1012.37 1012.97 1013.35 1013.95 1014.48 1015.09 1016.07 1016.90 1017.46 1018.72 1020.26 1021.38 1022.22 1023.18 1024.02 1024.96 1025.82 1026.69 1027.73 1028.57 1029.35 1029.87 1030.12 1030.63 1031.12 1031.58 1031.86 1032.06 1032.21 1032.28 1032.29 1032.37
1012.48 1013.06 1013.69 1014.35 1015.03 1015.63 1016.32 1016.96 1017.84 1019.32 1020.50 1021.70 1022.70 1023.44 1024.24 1025.26 1026.29 1027.31 1028.29 1029.02 1029.23 1029.79 1030.42 1031.00 1031.41 1031.71 1032.00 1032.18 1032.16 1032.22 1032.19 1032.18
1012.33 1013.22 1014.09 1014.89 1015.67 1016.38 1017.00 1017.85 1018.83 1019.75 1020.60 1021.71 1022.80 1023.76 1024.70 1025.82 1026.89 1027.81 1028.45 1028.85 1029.37 1030.03 1030.69 1031.14 1031.51 1031.77 1032.65 1033.07 1032.49 1032.08 1032.01 1031.97
1012.13 1013.12 1014.19 1015.05 1015.88 1016.57 1017.37 1018.25 1019.02 1019.76 1020.64 1021.84 1023.19 1024.26 1025.18 1026.20 1027.22 1027.97 1028.52 1028.91 1029.59 1030.26 1030.78 1031.15 1031.57 1031.96 1034.36 1034.32 1033.99 1032.55 1032.04 1031.82
1011.70 1012.86 1014.02 1014.90 1015.81 1016.62 1017.50 1018.38 1019.11 1019.86 1020.99 1022.40 1023.61 1024.56 1025.54 1026.56 1027.29 1027.81 1028.34 1029.05 1029.70 1030.21 1030.77 1031.14 1031.52 1032.90 1034.30 1034.33 1034.18 1032.83 1032.06 1031.88
1011.16 1012.60 1013.79 1014.81 1015.80 1016.74 1017.70 1018.44 1019.30 1020.33 1021.51 1022.78 1023.80 1024.77 1025.69 1026.51 1027.10 1027.58 1028.38 1029.09 1029.66 1030.21 1030.80 1031.21 1031.73 1033.37 1034.34 1034.33 1034.02 1032.96 1031.85 1031.86
Wind_Speed
18 18 17 17 16 15 14 12 13 11 9 7 7 7 7 6 6 7 7 5 5 4 5 3 4 6 6 6 6 6 5 8
19 18 17 17 17 16 16 15 15 11 9 9 8 7 7 6 6 8 7 6 5 3 4 4 4 6 6 7 7 9 7 8
19 20 18 17 18 17 16 16 16 12 9 8 8 8 7 7 7 7 7 6 4 4 2 4 6 4 6 7 9 6 8 7
21 22 21 19 19 18 17 17 17 14 12 9 8 7 7 6 7 7 6 6 5 4 4 5 4 4 5 6 8 9 8 8
21 23 22 21 20 18 18 18 18 14 14 12 13 10 9 8 8 7 7 7 6 5 5 4 4 4 6 6 7 8 7 8
22 23 23 22 20 18 17 18 18 17 15 13 11 11 8 8 8 10 8 7 6 5 5 4 4 6 7 8 7 9 7 7
21 21 21 21 18 18 16 19 18 17 16 14 15 12 10 9 10 9 8 7 6 5 5 5 7 6 6 4 7 8 7 7
20 23 22 21 21 18 15 19 19 18 17 15 15 13 10 11 11 9 9 7 6 6 5 6 6 7 4 5 6 5 7 6
18 22 21 21 21 20 19 20 18 18 16 14 13 12 8 8 10 9 7 7 6 8 7 8 7 5 4 4 5 4 5 5
15 18 19 19 20 20 18 19 17 16 17 14 13 10 11 9 12 8 7 8 8 8 9 8 6 5 4 3 4 5 5 5
12 15 17 16 17 17 15 15 17 16 16 14 12 11 9 7 9 8 9 9 10 10 9 7 7 4 4 4 4 5 5 5
7 8 13 15 16 16 16 17 18 17 16 14 12 11 10 8 8 10 11 11 11 9 8 7 5 5 4 4 4 5 5 5
10 8 8 10 12 16 16 17 18 17 16 14 14 12 11 9 11 12 12 12 10 9 8 6 5 5 5 4 4 5 5 6
9 10 10 11 12 12 14 15 16 15 14 14 14 14 13 13 13 12 12 11 10 9 7 6 6 5 4 3 3 4 5 5
11 11 11 11 11 12 13 14 14 15 15 15 15 15 15 14 13 13 12 11 10 9 7 7 6 5 4 2 3 4 4 4
13 13 12 12 11 11 12 13 15 16 16 16 15 15 15 14 14 13 11 10 9 9 8 7 6 5 6 6 6 4 4 4
14 14 14 14 14 14 14 15 16 16 16 16 15 15 15 14 14 12 10 10 10 9 7 6 5 7 6 4 7 6 4 4
16 15 15 14 15 15 15 15 16 16 16 16 16 15 15 14 13 12 11 10 9 8 7 6 5 9 4 2 6 7 5 5
17 15 15 15 15 15 15 16 16 16 16 16 15 15 15 14 13 12 10 9 9 8 6 6 6 8 4 2 7 8 5 5
Wind_Direction
169 174 165 164 152 158 164 167 165 170 165 159 149 172 137 139 139 119 143 121 119 107 88 69 34 35 46 15 3 3 5 358
169 177 165 166 159 160 165 170 165 171 174 179 167 159 149 152 129 146 140 127 124 119 122 107 74 47 37 18 357 356 357 21
173 173 173 176 168 168 168 169 171 181 179 178 173 158 165 155 139 146 132 141 140 149 90 70 18 82 42 25 9 356 348 18
176 176 179 181 173 173 176 171 174 186 176 168 162 154 150 153 150 155 152 154 155 111 88 78 77 33 42 23 14 7 346 357
181 182 181 185 175 176 176 173 176 182 182 165 174 173 173 177 169 153 157 158 146 127 110 97 54 57 33 25 34 359 9 351
185 188 184 183 173 177 180 174 177 178 183 176 178 185 188 159 163 146 157 157 149 138 131 101 69 52 57 43 30 18 9 350
185 188 185 183 171 174 179 180 179 178 182 187 188 198 178 164 165 172 166 163 156 146 133 98 70 78 65 45 26 34 18 5
190 186 186 181 175 172 176 185 180 178 185 194 189 192 190 177 170 184 172 166 163 148 139 117 94 81 63 33 39 29 24 6
195 189 179 183 173 177 182 186 183 181 183 192 190 188 186 189 188 179 175 172 152 137 102 103 104 105 77 38 54 15 23 1
199 187 180 180 176 183 184 183 182 177 184 188 185 186 187 208 173 152 181 121 118 125 116 123 119 86 54 28 56 20 354 2
190 188 176 184 179 179 179 183 179 182 185 186 181 182 190 186 141 164 126 126 125 119 130 131 99 110 67 18 25 44 356 6
204 193 178 185 173 169 178 184 189 181 184 182 166 173 180 128 145 135 138 133 124 142 134 117 147 96 64 57 30 40 358 1
168 184 183 184 173 183 177 187 196 172 179 169 174 158 137 134 141 142 132 129 140 129 136 145 117 99 77 54 30 16 7 4
162 167 173 174 177 167 175 179 186 163 165 169 155 149 146 145 143 135 135 136 133 142 140 129 118 105 90 61 35 20 8 358
167 163 160 159 158 165 164 169 140 151 163 160 158 154 147 142 136 134 133 143 141 133 129 126 128 115 92 36 27 7 352 1
169 164 158 153 152 151 153 153 158 162 162 161 157 145 138 135 138 143 138 139 138 133 139 137 132 125 45 1 351 336 346 334
179 166 162 162 159 158 155 160 162 162 159 154 146 143 140 137 139 141 141 138 141 142 148 144 150 92 86 40 342 315 339 322
182 172 168 163 162 157 160 161 159 158 153 147 150 145 141 144 148 148 144 146 148 148 150 155 156 112 123 2 336 293 318 338
180 173 167 162 158 158 157 156 156 154 151 153 149 148 149 147 151 144 146 150 155 157 157 159 161 103 143 322 317 278 295 321